Regional Weather Roundup
Issued by NWS

Home | Current Version | Previous Version | Graphics & Text | Print | Product List | Glossary Off
Versions: 1 2 3 4 5 6 7 8 9 10 11 12 13 14 15 16 17 18 19 20 21 22 23 24 25 26 27 28 29 30 31 32 33 34 35 36 37 38 39 40 41 42 43 44 45 46 47 48 49 50

328
ASUS43 KFSD 032202
RWRSD

WEATHER ROUNDUP FOR SOUTH DAKOTA
NATIONAL WEATHER SERVICE SIOUX FALLS SD
500 PM CDT TUE MAY 03 2016

NOTE: "FAIR" INDICATES FEW OR NO CLOUDS BELOW 12,000 FEET WITH NO
SIGNIFICANT WEATHER AND/OR OBSTRUCTIONS TO VISIBILITY.


SDZ001>005-009-010-012>017-032300-
NORTHWEST AND NORTH CENTRAL SOUTH DAKOTA

CITY           SKY/WX    TMP DP  RH WIND       PRES   REMARKS
BUFFALO          N/A     76  33  21 N13       30.01S
FAITH            N/A     75  36  24 N20       30.01F
MOBRIDGE       SUNNY     79  42  26 N22G29    29.91F
$$

SDZ012>016-024>037-041>051-057-063-072>074-032300-
SOUTHWEST AND SOUTH CENTRAL SOUTH DAKOTA

CITY           SKY/WX    TMP DP  RH WIND       PRES   REMARKS
RAPID CTY ARPT SUNNY     73  39  29 N17G26    30.07F
PIERRE         SUNNY     76  40  27 NW20G26   29.93F
CUSTER         MOSUNNY   68  29  23 N10G16    30.15F
ELLSWORTH AFB  SUNNY     73  37  26 N20G26    30.07S
PHILIP         SUNNY     76  39  26 N16       30.00F
PINE RIDGE     SUNNY     71  34  25 N13G21    30.07F
WINNER         FAIR      73  42  32 NW20      29.98F
$$

SDZ004>011-016>023-039-040-032300-
NORTHEAST SOUTH DAKOTA

CITY           SKY/WX    TMP DP  RH WIND       PRES   REMARKS
ABERDEEN       SUNNY     75  30  19 N24G38    29.88R
WATERTOWN      SUNNY     74  35  24 N28G37    29.83R
BROOKINGS      MOSUNNY   73  40  30 NW26G35   29.80F
SISSETON         N/A     72  25  17 N23G33    29.83R
$$

SDZ017-020-022-023-036>040-048>070-032300-
SOUTHEAST SOUTH DAKOTA

CITY           SKY/WX    TMP DP  RH WIND       PRES   REMARKS
SIOUX FALLS    PTSUNNY   69  43  38 W17G26    29.86F
HURON          MOSUNNY   75  41  29 NW21G31   29.85F
MITCHELL       SUNNY     74  44  34 NW21      29.89F
YANKTON        MOSUNNY   70  45  40 W17G25    29.91F
$$

ABBREVIATIONS USED IN REMARKS
   TC - TEMPERATURE IN CELSIUS
  WCI - WIND CHILL INDEX
   HX - HEAT INDEX
  VSB - VISIBILITY





USA.gov is the U.S. government's official web portal to all federal, state and local government web resources and services.